Home > Weather > St. Croix Falls > Past weeks

Flag for U.S.A. Weather for the Past 2 Weeks in St. Croix Falls, Wisconsin, U.S.A.

Now
15 °F

Overcast.


Feels Like: 0 °F
Forecast: 10 / 17 °F
Wind: 15 mph from Northwest

Location: L O Simenstad Municipal Airport

Current Time: Feb 8, 2016 at 1:21:55 PM

Latest Report: Feb 8, 2016 at 12:55 PM


Visibility: 10 mi

Pressure: 29.94 "Hg

Humidity: 63%

Dew point: 5 °F

Location of St. Croix FallsLocation

Historic Weather in St. Croix Falls — Graph

°F

St. Croix Falls Temperature Yesterday

Maximum temperature yesterday: 40 °F (at 11:15 AM)
Minimum temperature yesterday: 18 °F (at 11:55 PM)
Average temperature yesterday: 33 °F

High & Low Weather Summary for the Past Weeks

 TemperatureHumidityPressure
High42 °F (Jan 30, 12:55 PM)100% (Jan 24, 11:15 AM)30.36 "Hg (Jan 24, 11:15 AM)
Low-5 °F (Feb 5, 4:35 AM)46% (Feb 3, 2:15 PM)29.50 "Hg (Jan 30, 1:15 AM)
Average25 °F84%29.89 "Hg
* Reported Jan 24 11:15 AM — Feb 8 11:55 AM, St. Croix Falls, Weather by CustomWeather, © 2016

Note: Actual official high and low records may vary slightly from our data, if they occured in-between our weather recording intervals... More about our weather records

Advertising

St. Croix Falls Weather History for the Previous 24 Hours

 ConditionsComfort  
Time TempWeatherWind HumidityBarometerVisibility
11:55 AM
Mon, Feb 8
14 °FOvercast.13 mph64%29.95 "Hg10 mi
11:35 AM13 °FOvercast.16 mph65%29.96 "Hg10 mi
11:15 AM13 °FMostly cloudy.13 mph68%29.96 "Hg10 mi
10:55 AM12 °FOvercast.15 mph68%29.95 "Hg10 mi
10:35 AM12 °FMostly cloudy.18 mph68%29.95 "Hg10 mi
10:15 AM12 °FBroken clouds.12 mph66%29.94 "Hg10 mi
9:55 AM12 °FBroken clouds.12 mph68%29.94 "Hg10 mi
9:35 AM11 °FLight snow. Cloudy.16 mph70%29.93 "Hg10 mi
9:15 AM12 °FMore clouds than sun.14 mph69%29.92 "Hg10 mi
8:55 AM12 °FMore clouds than sun.13 mph70%29.92 "Hg10 mi
8:35 AM12 °FLight snow. Overcast.20 mph71%29.91 "Hg10 mi
8:15 AM12 °FMostly cloudy.16 mph72%29.91 "Hg10 mi
7:55 AM12 °FMostly cloudy.12 mph73%29.89 "Hg10 mi
7:35 AM12 °FOvercast.13 mph73%29.89 "Hg10 mi
7:15 AM12 °FMostly cloudy.17 mph73%29.88 "Hg10 mi
6:55 AM13 °FMostly cloudy.13 mph73%29.87 "Hg10 mi
6:15 AM13 °FOvercast.15 mph75%29.86 "Hg10 mi
5:55 AM13 °FLight snow. Overcast.15 mph76%29.86 "Hg10 mi
5:35 AM14 °FLight snow. Mostly cloudy.14 mph75%29.84 "Hg10 mi
5:15 AM14 °FLight snow. Mostly cloudy.15 mph76%29.84 "Hg10 mi
4:55 AM14 °FLight snow. Mostly cloudy.16 mph76%29.83 "Hg10 mi
4:35 AM14 °FLight snow. Overcast.16 mph77%29.82 "Hg10 mi
4:15 AM14 °FLight snow. Overcast.17 mph76%29.81 "Hg10 mi
3:55 AM14 °FLight snow. Mostly cloudy.17 mph77%29.81 "Hg7 mi
3:35 AM15 °FLight snow. Mostly cloudy.16 mph79%29.80 "Hg10 mi
3:15 AM15 °FLight snow. Overcast.13 mph80%29.79 "Hg7 mi
2:55 AM15 °FLight snow. Mostly cloudy.15 mph79%29.79 "Hg7 mi
2:35 AM15 °FLight snow. Mostly cloudy.16 mph80%29.79 "Hg5 mi
2:15 AM16 °FLight snow. Mostly cloudy.12 mph81%29.79 "Hg7 mi
1:55 AM16 °FLight snow. Mostly cloudy.10 mph82%29.78 "Hg4 mi
1:35 AM17 °FLight snow. Mostly cloudy.12 mph78%29.78 "Hg5 mi
1:15 AM17 °FLight snow. Mostly cloudy.14 mph77%29.78 "Hg7 mi
12:55 AM17 °FLight snow. Overcast.10 mph75%29.77 "Hg10 mi
12:35 AM17 °FLight snow. Overcast.12 mph73%29.77 "Hg10 mi
12:15 AM18 °FOvercast.14 mph72%29.77 "Hg10 mi
11:55 PM
Sun, Feb 7
18 °FOvercast.14 mph71%29.77 "Hg10 mi
11:35 PM18 °FOvercast.15 mph70%29.77 "Hg10 mi
11:15 PM19 °FLight snow. Mostly cloudy.13 mph72%29.76 "Hg10 mi
10:55 PM19 °FMostly cloudy.14 mph69%29.76 "Hg10 mi
10:15 PM20 °FOvercast.14 mph74%29.76 "Hg10 mi
9:55 PM21 °FOvercast.13 mph74%29.75 "Hg10 mi
9:15 PM22 °FOvercast.18 mph74%29.74 "Hg10 mi
8:55 PM22 °FLight snow. Mostly cloudy.16 mph79%29.74 "Hg7 mi
8:15 PM24 °FLight snow. Overcast.15 mph84%29.73 "Hg3 mi
7:55 PM25 °FLight snow. Overcast.16 mph85%29.72 "Hg3 mi
7:15 PM26 °FLight snow. Mostly cloudy.16 mph85%29.71 "Hg5 mi
6:55 PM27 °FLight snow. Overcast.22 mph83%29.70 "Hg5 mi
6:35 PM28 °FLight snow. Overcast.28 mph89%29.69 "Hg2 mi
6:15 PM30 °FLight snow. Mostly cloudy.17 mph94%29.68 "Hg2 mi
5:55 PM30 °FLight snow. Low clouds.20 mph94%29.67 "Hg2 mi
5:15 PM34 °FLight snow. Overcast.17 mph97%29.64 "Hg4 mi
4:55 PM35 °FLight rain. More clouds than sun.14 mph89%29.63 "Hg7 mi
4:35 PM36 °FLight rain. Overcast.13 mph87%29.62 "Hg10 mi
4:15 PM37 °FLight rain. Overcast.10 mph75%29.62 "Hg10 mi
3:55 PM37 °FMostly cloudy.9 mph74%29.61 "Hg10 mi
3:35 PM38 °FOvercast.10 mph71%29.61 "Hg10 mi
3:15 PM38 °FOvercast.12 mph71%29.61 "Hg10 mi
2:55 PM38 °FOvercast.14 mph68%29.60 "Hg10 mi
2:35 PM39 °FOvercast.13 mph66%29.60 "Hg10 mi
2:15 PM39 °FOvercast.13 mph65%29.59 "Hg10 mi
1:55 PM39 °FOvercast.16 mph63%29.59 "Hg10 mi
1:35 PM39 °FOvercast.15 mph63%29.60 "Hg10 mi
1:15 PM40 °FOvercast.18 mph62%29.60 "Hg10 mi
Weather by CustomWeather, © 2016

See weather overviewHow to use our weather pages